| time (UTC) | temp F | wind direction | speed knots | gust knots | rain 1hr in | rain 24hr in | rain mn in | humidity % | barometer mb |
| 20260905041530 | 55 | 22 | 0.0 | 1.7 | 0.00 | 0.01 | 0.01 | 80 | 1013.4 |
| 20260905040107 | 56 | 17 | 1.7 | 3.5 | 0.00 | 0.01 | 0.01 | 80 | 1013.4 |
| 20260905034603 | 56 | 36 | 2.6 | 3.5 | 0.00 | 0.01 | 0.01 | 80 | 1013.2 |
| 20260905033030 | 56 | 22 | 1.7 | 3.5 | 0.00 | 0.01 | 0.01 | 79 | 1013.0 |
| 20260905031529 | 57 | 12 | 2.6 | 4.3 | 0.00 | 0.01 | 0.01 | 77 | 1012.9 |
| 20260905030031 | 58 | 208 | 0.0 | 1.7 | 0.00 | 0.01 | 0.01 | 75 | 1012.8 |
| 20260905024530 | 59 | 51 | 0.9 | 3.5 | 0.00 | 0.01 | 0.01 | 75 | 1012.7 |
| 20260905021531 | 58 | 46 | 2.6 | 5.2 | 0.00 | 0.01 | 0.01 | 75 | 1012.7 |
| 20260905014532 | 60 | 10 | 3.5 | 5.2 | 0.00 | 0.01 | 0.01 | 71 | 1012.3 |
| 20260905013029 | 62 | 345 | 2.6 | 6.1 | 0.00 | 0.01 | 0.01 | 68 | 1012.2 |
| 20260905011530 | 65 | 281 | 3.5 | 7.0 | 0.00 | 0.01 | 0.01 | 68 | 1012.0 |
| 20260905010032 | 65 | 310 | 2.6 | 5.2 | 0.00 | 0.01 | 0.01 | 70 | 1012.0 |
| 20260905004531 | 64 | 345 | 4.3 | 7.8 | 0.00 | 0.01 | 0.01 | 72 | 1011.9 |
| 20260905003032 | 64 | 337 | 2.6 | 6.1 | 0.00 | 0.01 | 0.01 | 72 | 1011.8 |
| 20260905001529 | 64 | 266 | 1.7 | 4.3 | 0.00 | 0.01 | 0.01 | 71 | 1011.8 |
| 20260905000029 | 64 | 211 | 0.9 | 1.7 | 0.00 | 0.01 | 0.01 | 67 | 1011.7 |
| 20260904234531 | 65 | 164 | 0.0 | 0.9 | 0.00 | 0.01 | 0.01 | 67 | 1011.6 |
| 20260904233109 | 64 | 157 | 0.9 | 3.5 | 0.00 | 0.01 | 0.01 | 68 | 1011.7 |
| 20260904231532 | 62 | 169 | 2.6 | 4.3 | 0.00 | 0.01 | 0.01 | 70 | 1011.7 |
| 20260904230106 | 62 | 164 | 3.5 | 7.0 | 0.00 | 0.01 | 0.01 | 69 | 1011.8 |
| 20260904224531 | 63 | 180 | 1.7 | 6.1 | 0.00 | 0.01 | 0.01 | 69 | 1011.7 |
| 20260904223031 | 64 | 185 | 2.6 | 6.1 | 0.00 | 0.01 | 0.01 | 69 | 1011.6 |
| 20260904214529 | 66 | 247 | 0.9 | 2.6 | 0.00 | 0.01 | 0.01 | 71 | 1011.3 |
| 20260904213105 | 64 | 226 | 1.7 | 3.5 | 0.00 | 0.01 | 0.01 | 73 | 1011.3 |
| 20260904210028 | 65 | 88 | 0.0 | 1.7 | 0.00 | 0.01 | 0.01 | 73 | 1011.2 |
| 20260904204606 | 63 | 166 | 0.9 | 2.6 | 0.00 | 0.01 | 0.01 | 75 | 1011.3 |
| 20260904203029 | 63 | 202 | 0.9 | 2.6 | 0.00 | 0.01 | 0.01 | 76 | 1011.3 |
| 20260904201529 | 62 | 176 | 0.9 | 3.5 | 0.00 | 0.01 | 0.01 | 76 | 1011.4 |
| 20260904200029 | 63 | 191 | 1.7 | 4.3 | 0.00 | 0.01 | 0.01 | 76 | 1011.5 |
| 20260904194530 | 63 | 268 | 0.9 | 3.5 | 0.00 | 0.01 | 0.01 | 78 | 1011.6 |
| 20260904193043 | 61 | 237 | 0.0 | 2.6 | 0.00 | 0.01 | 0.01 | 79 | 1011.8 |
| 20260904191532 | 61 | 185 | 0.0 | 1.7 | 0.00 | 0.01 | 0.01 | 80 | 1011.8 |
| 20260904190030 | 60 | 232 | 1.7 | 3.5 | 0.00 | 0.01 | 0.01 | 83 | 1011.9 |
| 20260904180030 | 56 | 117 | 0.0 | 0.9 | 0.00 | 0.01 | 0.01 | 90 | 1011.9 |
| 20260904174530 | 56 | 184 | 0.0 | 2.6 | 0.00 | 0.01 | 0.01 | 89 | 1012.0 |
| 20260904173106 | 56 | 180 | 0.9 | 3.5 | 0.00 | 0.01 | 0.01 | 89 | 1012.0 |
| 20260904171530 | 58 | 217 | 1.7 | 4.3 | 0.00 | 0.01 | 0.01 | 88 | 1011.9 |
| 20260904170029 | 59 | 176 | 0.9 | 3.5 | 0.00 | 0.01 | 0.01 | 88 | 1011.8 |
| 20260904160032 | 55 | 219 | 0.9 | 2.6 | 0.00 | 0.01 | 0.01 | 94 | 1011.8 |
| 20260904154529 | 53 | 202 | 0.0 | 0.9 | 0.00 | 0.01 | 0.01 | 96 | 1011.7 |
| 20260904150105 | 50 | 180 | 0.0 | 2.6 | 0.00 | 0.01 | 0.01 | 97 | 1011.3 |
| 20260904144532 | 50 | 180 | 0.9 | 1.7 | 0.00 | 0.01 | 0.01 | 97 | 1011.2 |
| 20260904143034 | 50 | 169 | 0.9 | 1.7 | 0.00 | 0.01 | 0.01 | 97 | 1011.1 |
| 20260904140041 | 49 | 105 | 0.0 | 1.7 | 0.01 | 0.01 | 0.01 | 96 | 1010.8 |
| 20260904134531 | 49 | 8 | 0.0 | 0.0 | 0.01 | 0.01 | 0.01 | 96 | 1010.7 |
| 20260904133031 | 49 | 360 | 0.0 | 0.9 | 0.01 | 0.01 | 0.00 | 96 | 1010.5 |
| 20260904131528 | 49 | 51 | 0.0 | 1.7 | 0.00 | 0.00 | 0.00 | 96 | 1010.4 |
| 20260904130029 | 49 | 67 | 0.0 | 0.9 | 0.00 | 0.00 | 0.00 | 96 | 1010.2 |
| 20260904124527 | 49 | 87 | 0.0 | 0.9 | 0.00 | 0.00 | 0.00 | 96 | 1010.2 |
| 20260904123032 | 49 | 90 | 0.0 | 0.0 | 0.00 | 0.00 | 0.00 | 96 | 1010.2 |
| 20260904120032 | 49 | 90 | 0.0 | 0.9 | 0.00 | 0.00 | 0.00 | 95 | 1010.0 |
| 20260904114531 | 49 | 91 | 0.0 | 0.9 | 0.00 | 0.00 | 0.00 | 95 | 1009.8 |
| 20260904113030 | 50 | 173 | 0.9 | 2.6 | 0.00 | 0.00 | 0.00 | 95 | 1009.7 |
| 20260904111530 | 50 | 90 | 0.0 | 0.0 | 0.00 | 0.00 | 0.00 | 95 | 1009.5 |
| 20260904110109 | 50 | 90 | 0.0 | 0.0 | 0.00 | 0.00 | 0.00 | 95 | 1009.5 |
| 20260904104531 | 50 | 90 | 0.0 | 0.0 | 0.00 | 0.00 | 0.00 | 95 | 1009.4 |
| 20260904101531 | 49 | 90 | 0.0 | 0.0 | 0.00 | 0.00 | 0.00 | 95 | 1009.2 |
| 20260904094532 | 49 | 90 | 0.0 | 0.9 | 0.00 | 0.00 | 0.00 | 95 | 1008.9 |
| 20260904091530 | 49 | 160 | 0.0 | 1.7 | 0.00 | 0.00 | 0.00 | 94 | 1008.9 |
| 20260904090107 | 49 | 157 | 0.0 | 0.0 | 0.00 | 0.00 | 0.00 | 94 | 1008.8 |
| 20260904084531 | 49 | 169 | 0.0 | 2.6 | 0.00 | 0.00 | 0.00 | 93 | 1008.8 |
| 20260904083030 | 50 | 202 | 0.0 | 0.9 | 0.00 | 0.00 | 0.00 | 93 | 1008.6 |
| 20260904081530 | 50 | 202 | 0.0 | 0.0 | 0.00 | 0.00 | 0.00 | 93 | 1008.6 |
| 20260904073031 | 50 | 202 | 0.9 | 1.7 | 0.00 | 0.00 | 0.00 | 92 | 1008.7 |
| 20260904071530 | 50 | 164 | 0.0 | 0.0 | 0.00 | 0.00 | 0.00 | 91 | 1008.7 |
| 20260904070033 | 51 | 136 | 0.0 | 1.7 | 0.00 | 0.00 | 0.00 | 91 | 1008.5 |
| 20260904061530 | 51 | 67 | 0.0 | 1.7 | 0.00 | 0.00 | 0.00 | 90 | 1008.5 |
| 20260904060108 | 51 | 67 | 0.9 | 1.7 | 0.00 | 0.00 | 0.00 | 89 | 1008.5 |
| 20260904054531 | 51 | 296 | 0.0 | 2.6 | 0.00 | 0.00 | 0.00 | 88 | 1008.5 |
| 20260904053105 | 52 | 273 | 0.0 | 2.6 | 0.00 | 0.00 | 0.00 | 88 | 1008.5 |
| 20260904051531 | 52 | 337 | 0.0 | 1.7 | 0.00 | 0.00 | 0.00 | 88 | 1008.5 |
| 20260904050107 | 52 | 337 | 0.0 | 0.0 | 0.00 | 0.00 | 0.00 | 88 | 1008.6 |
| 20260904044529 | 53 | 337 | 0.0 | 0.0 | 0.00 | 0.00 | 0.00 | 87 | 1008.6 |